Flag for Canada Weather past 2 weeks in Medicine Hat, Alberta, Canada

Now
32 °F

Passing clouds.


Feels Like: 24 °F
Forecast: 28 / 46 °F
Wind: 10 mph from Southwest

Location: Medicine Hat

Current Time: Mar 6, 2015 at 5:53:22 AM

Latest Report: Mar 6, 2015 at 5:00 AM


Visibility: 9 mi

Pressure: 30.05 "Hg

Humidity: 75%

Dew point: 25 °F

Location of Medicine HatLocation

Historic Weather in Medicine Hat — Graph

°F

Medicine Hat temperature yesterday

Maximum temperature yesterday: 48 °F (at 4:00 PM)
Minimum temperature yesterday: 12 °F (at 5:00 AM)
Average temperature yesterday: 30 °F

Past Weeks' High & Low Weather Summary

 TemperatureHumidityPressure
High50 °F (Feb 19, 3:00 PM)100% (Feb 19, 4:00 AM)30.78 "Hg (Feb 19, 4:00 AM)
Low-9 °F (Feb 26, 7:00 AM)31% (Mar 4, 2:00 PM)29.83 "Hg (Mar 2, 4:00 AM)
Average20 °F73%30.27 "Hg
* Reported Feb 19 4:00 AM — Mar 6 4:00 AM, Medicine Hat, Weather by CustomWeather, © 2015

Note: Actual official high and low records may vary slightly from our data, if they occured in-between our weather recording intervals... More about our weather records

Advertising

Medicine Hat weather history for previous 24 hours

 ConditionsComfort  
Time TempWeatherWind HumidityBarometerVisibility
4:00 AM
Fri, Mar 6
32 °FClear.13 mph75%30.05 "Hg9 mi
3:00 AM32 °FClear.7 mph75%30.06 "Hg9 mi
2:00 AM32 °FPassing clouds.9 mph80%30.06 "Hg9 mi
1:00 AM32 °FPassing clouds.10 mph80%30.06 "Hg9 mi
12:00 AM28 °FClear.8 mph86%30.09 "Hg9 mi
11:00 PM
Thu, Mar 5
30 °FPassing clouds.5 mph86%30.10 "Hg9 mi
10:00 PM32 °FOvercast.No wind80%30.11 "Hg9 mi
9:00 PM32 °FPassing clouds.2 mph80%30.13 "Hg9 mi
8:00 PM36 °FMostly cloudy.3 mph70%30.14 "Hg15 mi
7:00 PM36 °FHigh level clouds.5 mph70%30.14 "Hg15 mi
6:00 PM39 °FMore clouds than sun.5 mph61%30.14 "Hg30 mi
5:00 PM46 °FOvercast.7 mph46%30.13 "Hg30 mi
4:00 PM48 °FOvercast.9 mph43%30.11 "Hg30 mi
3:00 PM46 °FOvercast.8 mph43%30.11 "Hg30 mi
2:00 PM45 °FCloudy.12 mph49%30.11 "Hg30 mi
1:00 PM43 °FMore clouds than sun.14 mph49%30.13 "Hg30 mi
12:00 PM41 °FBroken clouds.14 mph49%30.14 "Hg30 mi
11:00 AM39 °FOvercast.12 mph48%30.14 "Hg30 mi
10:00 AM34 °FPartly sunny.12 mph56%30.15 "Hg30 mi
9:00 AM28 °FScattered clouds.13 mph64%30.16 "Hg30 mi
8:00 AM21 °FPassing clouds.10 mph80%30.15 "Hg30 mi
7:00 AM18 °FPassing clouds.9 mph86%30.15 "Hg30 mi
6:00 AM12 °FPassing clouds.6 mph92%30.16 "Hg15 mi
5:00 AM12 °FClear.8 mph92%30.14 "Hg9 mi
Weather by CustomWeather, © 2015

See weather overviewHow to use our weather pages